Location: G�ndlingen
(48.0142°N, 7.6396°E)
Time: 18:50:13
(UTC+00:00)

GP-B - Pass Details

Date: 05 July 2020
Orbit: 631 x 635 km, 89.8° (Epoch: 12 August)

Event Time Altitude Azimuth Distance (km) Brightness Sun altitude
Rises 22:03:32 0° 11° (N) 2,943 7.5 -16.4°
Reaches altitude 10° 22:06:04 10° 24° (NNE) 2,029 6.3 -16.6°
Maximum altitude 22:09:51 27° 82° (E) 1,237 4.5 -16.8°
Enters shadow 22:11:25 22° 115° (ESE) 1,404 4.5 -16.9°
